모두
Maitland Airport (Maitland South Australia) YMLD 기상
There is no TAF data available at YMLD or any nearby airports.
There is no METAR data available at YMLD. Showing METAR data for YMIN (26 mi 서남).
최근 XML METAR 이력(YMLD에 대한 데이터 없음)
| Date | Time (ACST) | Flight Rules | Wind Dir. | Speed | Type | Height AGL (ft) | Visibility | Temp (°C) | Temp (°F) | Dew Point (°C) | Dew Point (°F) | Rel. Humid. | Pressure | Density Altitude | Remarks |
|---|---|---|---|---|---|---|---|---|---|---|---|---|---|---|---|
| 04-9월 | 21:30 | n/a | 350° | 11 kt | Missing | 16° | 60° | 13° | 55° | 82% | 1008 mb | 386 ft | |||
| 04-9월 | 20:30 | n/a | 360° | 14 kt | Missing | 16° | 60° | 13° | 55° | 82% | 1008 mb | 386 ft | |||
| 04-9월 | 19:30 | n/a | 350° | 14 kt | Missing | 17° | 62° | 13° | 55° | 77% | 1008 mb | 506 ft | |||
| 04-9월 | 18:30 | n/a | 360° | 13 kt | Missing | 17° | 62° | 13° | 55° | 77% | 1008 mb | 506 ft | |||
| 04-9월 | 17:30 | n/a | 10° | 9 kt | Missing | 17° | 62° | 14° | 57° | 82% | 1007 mb | 535 ft | |||
| 04-9월 | 16:30 | n/a | 10° | 11 kt | Missing | 19° | 66° | 15° | 59° | 78% | 1008 mb | 746 ft | |||
| 04-9월 | 15:30 | n/a | 20° | 12 kt | Missing | 19° | 66° | 15° | 59° | 78% | 1008 mb | 746 ft | |||
| 04-9월 | 14:30 | n/a | 10° | 14 kt | Missing | 20° | 68° | 14° | 57° | 68% | 1009 mb | 836 ft | |||
| gap in available data | |||||||||||||||
| 04-9월 | 13:00 | n/a | 30° | 15 kt | Missing | 17° | 62° | 13° | 55° | 77% | 1011 mb | 417 ft | |||
| 04-9월 | 12:30 | n/a | 40° | 14 kt | Missing | 17° | 62° | 13° | 55° | 77% | 1011 mb | 417 ft | |||
| 04-9월 | 11:36 | n/a | 40° | 9 kt | Missing | 15° | 59° | 13° | 55° | 88% | 1013 mb | 118 ft | |||
| 04-9월 | 10:30 | n/a | 10° | 9 kt | Missing | 13° | 55° | 11° | 51° | 88% | 1014 mb | -151 ft | |||
| 04-9월 | 09:30 | n/a | 10° | 16 kt | Missing | 14° | 57° | 11° | 51° | 82% | 1015 mb | -61 ft | |||
| 04-9월 | 08:30 | n/a | 20° | 9 kt | Missing | 14° | 57° | 11° | 51° | 82% | 1015 mb | -61 ft | |||
| 04-9월 | 07:30 | n/a | 20° | 9 kt | Missing | 13° | 55° | 11° | 51° | 88% | 1015 mb | -181 ft | |||
| 04-9월 | 06:30 | n/a | 40° | 9 kt | Missing | 12° | 53° | 11° | 51° | 94% | 1015 mb | -301 ft | |||
| 04-9월 | 05:30 | n/a | 50° | 13 kt | Missing | 12° | 53° | 11° | 51° | 94% | 1015 mb | -301 ft | |||
| 04-9월 | 04:30 | n/a | 50° | 11 kt | Missing | 12° | 53° | 11° | 51° | 94% | 1016 mb | -330 ft | |||
| 04-9월 | 03:30 | n/a | 50° | 12 kt | Missing | 11° | 51° | 10° | 50° | 94% | 1017 mb | -480 ft | |||
| 04-9월 | 02:30 | n/a | 50° | 12 kt | Missing | 10° | 50° | 10° | 50° | 100% | 1018 mb | -630 ft | |||
| 04-9월 | 01:30 | n/a | 50° | 12 kt | Missing | 10° | 50° | 9° | 48° | 93% | 1018 mb | -630 ft | |||
| 04-9월 | 00:30 | n/a | 80° | 9 kt | Missing | 10° | 50° | 8° | 46° | 87% | 1018 mb | -630 ft | |||
| 03-9월 | 23:30 | n/a | 60° | 7 kt | Missing | 11° | 51° | 9° | 48° | 87% | 1020 mb | -569 ft | |||
| 03-9월 | 22:30 | n/a | 70° | 7 kt | Missing | 13° | 55° | 11° | 51° | 88% | 1020 mb | -329 ft | |||
로그인
| 귀하의 브라우저는 지원되지 않습니다.. 브라우저를 업그레이드하세요 |
